Location: *
(42.2373°N, 1.3449°E)
Time: 12:59:49
(UTC+00:00)

Daily predictions for brighter satellites

Satellite Brightness Start Highest point End
(mag) Time Altitude Azimuth Time Altitude Azimuth Time Altitude Azimuth
FALCON 9 R/B 4.4 18:03:06 10° SW 18:08:49 33° SSE 18:31:54 10° E
STARLINK-1247 4.1 18:42:11 10° WSW 18:45:09 42° NNW 18:48:10 10° NE
STARLINK-1243 3.6 18:41:19 10° SW 18:45:24 86° NW 18:49:29 10° NE
STARLINK-1227 4.1 18:42:36 10° WSW 18:45:36 42° NNW 18:48:38 10° NE
STARLINK-1218 4.1 18:43:05 10° WSW 18:46:04 42° NNW 18:49:04 10° NE
Abrixas rocket 3.4 18:44:01 10° SSW 18:46:18 21° SE 18:48:36 10° E
STARLINK-1226 4.1 18:43:32 10° WSW 18:46:31 41° NNW 18:49:31 10° NE
STARLINK-1254 4.1 18:43:58 10° WSW 18:46:57 41° NNW 18:49:58 10° NE
STARLINK-1215 4.1 18:44:27 10° WSW 18:47:26 41° NNW 18:50:24 10° NE
STARLINK-1231 4.2 18:44:54 10° WSW 18:47:52 40° NNW 18:50:51 10° NE
STARLINK-1079 4.3 18:44:16 10° NW 18:48:06 40° NNE 18:51:56 10° E
STARLINK-1232 4.2 18:45:49 10° WSW 18:48:47 40° NNW 18:51:45 10° NE
STARLINK-1217 4.2 18:46:17 10° WSW 18:49:14 39° NNW 18:52:13 10° NE
STARLINK-1208 4.2 18:46:42 10° WSW 18:49:40 39° NNW 18:52:39 10° NE
STARLINK-1229 4.2 18:47:11 10° WSW 18:50:08 39° NNW 18:53:05 10° NE
STARLINK-1236 3.7 18:46:06 10° SW 18:50:10 80° NW 18:54:16 10° NE
STARLINK-1271 4.2 18:47:38 10° WSW 18:50:35 38° NNW 18:53:32 10° NE
STARLINK-1270 4.3 18:48:06 10° W 18:51:03 38° NNW 18:54:00 10° NE
Cosmos 304 Rocket 3.9 18:46:22 10° N 18:51:04 53° ENE 18:55:45 10° SE
STARLINK-1154 4.3 18:48:33 10° W 18:51:29 38° NNW 18:54:27 10° NE
Cosmos 1709 Rocket 4.5 18:46:06 10° N 18:51:52 38° ENE 18:57:32 10° SE
STARLINK-1197 4.3 18:49:28 10° W 18:52:24 37° NNW 18:55:21 10° NE
Cosmos 1269 Rocket 4.2 18:47:20 10° S 18:52:26 52° ESE 18:57:34 10° NNE
STARLINK-1116 4.2 18:48:41 10° NW 18:52:34 43° NNE 18:56:25 10° ESE
SeaSat 1 3.9 18:48:05 10° NNE 18:52:45 43° WNW 18:57:22 10° SW
STARLINK-1189 4.3 18:49:56 10° W 18:52:52 37° NNW 18:55:48 10° NE
STARLINK-1188 4.3 18:50:51 10° W 18:53:46 36° NNW 18:56:41 10° NE
STARLINK-1198 4.3 18:50:51 10° W 18:53:46 36° NNW 18:56:42 10° NE
STARLINK-1199 4.4 18:52:47 10° W 18:55:43 35° NNW 18:58:39 10° NE
STARLINK-1191 4.4 18:53:15 10° W 18:56:10 35° NNW 18:59:06 10° NE
STARLINK-1210 4.4 18:53:43 10° W 18:56:38 35° NNW 18:59:34 10° NE
SL-08 ROCKET BODY 4.4 18:50:41 10° N 18:56:48 69° E 19:02:46 10° SSE
STARLINK-1221 4.5 18:54:10 10° W 18:57:05 35° NNW 19:00:00 10° NE
STARLINK-1219 4.5 18:54:37 10° W 18:57:32 34° NNW 19:00:28 10° NE
STARLINK-1222 4.5 18:55:05 10° W 18:57:59 34° NNW 19:00:55 10° NE
YAOGAN 1 3.7 18:54:04 10° S 18:58:14 47° W 19:02:26 10° NNW
STARLINK-1211 4.5 18:55:33 10° W 18:58:26 34° NNW 19:01:21 10° NE
STARLINK-1118 2.8 18:56:38 10° WNW 18:58:45 45° SW 19:00:51 10° SE
ISS -1.5 18:57:01 10° NW 18:59:21 17° N 19:01:40 10° NE
STARLINK-1269 3.9 18:55:57 10° WSW 19:00:01 68° NNW 19:04:05 10° NE
Cosmos 1455 Rocket 3.0 18:56:09 10° S 19:00:25 63° E 19:04:45 10° NNE
STARLINK-1094 4.0 18:57:54 10° NW 19:01:52 49° NNE 19:05:21 13° ESE
Cosmos 371 Rocket 4.1 18:57:54 10° NNW 19:02:36 53° WSW 19:07:18 10° S
Cosmos 2297 4.0 18:57:11 10° NNW 19:02:41 48° ENE 19:08:09 10° SE
S3M 4.1 18:57:52 10° S 19:04:14 89° W 19:10:40 10° N
STARLINK-1200 4.1 19:00:48 10° WSW 19:04:50 62° NW 19:08:53 10° NE
Cosmos 2237 Rocket 3.1 18:59:25 10° SW 19:04:56 54° WNW 19:10:27 10° NNE
STARLINK-1117 3.9 19:02:44 10° NW 19:06:43 53° NNE 19:10:00 14° ESE
Cosmos 1386 Rocket 4.4 19:01:48 10° N 19:07:53 85° E 19:13:53 10° S
Cosmos 1805 4.0 19:04:49 10° SSW 19:08:39 58° W 19:12:32 10° N
STARLINK-1192 4.2 19:05:35 10° WSW 19:09:36 58° NNW 19:13:38 10° NE
Cosmos 1892 Rocket 3.7 19:05:27 10° N 19:09:57 82° W 19:14:26 10° S
CZ-2C R/B 3.8 19:06:59 10° NE 19:10:34 19° E 19:14:08 10° SE
Cosmos 1626 Rocket 4.2 19:06:40 10° N 19:10:41 34° ENE 19:14:38 10° SE
STARLINK-1078 3.8 19:07:10 10° NW 19:11:10 57° NNE 19:14:17 16° ESE
BREEZE-M DEB (TANK) 3.4 19:00:54 10° WNW 19:12:51 71° SW 19:15:44 13° SE
Cosmos 2278 Rocket 3.5 19:08:20 10° NW 19:13:38 42° WSW 19:18:55 10° S
Meteor 2-5 Rocket 4.0 19:08:44 10° NNW 19:14:22 71° W 19:19:52 10° S
STARLINK-1244 4.3 19:10:32 10° WSW 19:14:32 54° NNW 19:18:33 10° NE
ARGOS 3.3 19:09:29 10° SSE 19:14:44 53° ENE 19:19:58 10° N
STARLINK-1108 3.7 19:12:01 10° NW 19:16:03 62° NNE 19:18:58 18° ESE
Cosmos 1602 Rocket 4.3 19:14:40 10° N 19:18:42 32° ENE 19:21:45 15° SE
STARLINK-1138 4.4 19:15:10 10° WSW 19:19:09 50° NNW 19:23:08 10° NE
STARLINK-1071 3.6 19:16:40 10° NW 19:20:43 67° NE 19:23:26 20° ESE
Okean 1-7 Rocket 3.9 19:17:35 10° NNW 19:21:59 70° W 19:26:19 10° S
USA 186 1.9 19:18:35 10° SSE 19:21:59 63° ENE 19:25:21 10° N
MOS 1 Rocket 4.5 19:20:37 10° NE 19:25:04 27° E 19:29:35 10° SSE
STARLINK-1110 3.6 19:21:07 10° NW 19:25:11 72° NE 19:27:43 22° ESE
Meteor 1-24 Rocket 3.8 19:20:07 10° NNW 19:25:38 77° W 19:30:57 10° S
STARLINK-1124 3.6 19:22:29 10° NW 19:26:39 74° NE 19:29:13 22° ESE
CZ-2C R/B 2.9 19:22:04 10° SSE 19:27:08 72° ENE 19:31:59 10° N
Cosmos 1544 Rocket 3.6 19:23:37 10° S 19:28:00 86° W 19:32:27 10° N
Cosmos 1470 2.7 19:26:15 10° S 19:30:03 60° E 19:33:54 10° NNE
Cosmos 1331 Rocket 4.3 19:26:00 10° NNW 19:31:08 66° WSW 19:36:13 10° S
SPOT 3 Rocket 3.8 19:29:48 15° SE 19:33:54 48° ENE 19:38:54 10° N
STARLINK-1122 3.5 19:30:33 10° NW 19:34:38 84° NE 19:36:48 27° SE
MOS 1 4.2 19:30:07 10° SSE 19:35:45 86° ENE 19:41:27 10° NNW
STARLINK-1126 3.5 19:35:32 10° NW 19:39:37 89° SSW 19:41:36 29° SE
SJ-6B 2.8 19:36:17 12° SSE 19:40:03 79° ENE 19:44:11 10° N
Cosmos 2369 Rocket 3.1 19:35:52 10° N 19:40:57 32° NE 19:43:14 24° E
Cosmos 1726 3.6 19:42:57 22° ENE 19:42:57 22° ENE 19:45:00 10° NE
H-2A R/B 4.0 19:33:02 10° W 19:42:17 20° SW 19:45:47 10° S
Ariane Rocket 3.6 19:38:04 10° S 19:43:04 59° WSW 19:48:06 10° NNW
Cosmos 1758 3.2 19:39:56 10° S 19:44:00 82° E 19:48:07 10° N
STARLINK-1082 3.5 19:40:02 10° NW 19:44:06 83° SW 19:45:55 32° SE
Aureole 2 Rocket 3.9 19:43:19 10° N 19:45:56 23° NE 19:45:56 23° NE
NOSS 3-3 (A) 4.2 19:41:21 10° S 19:46:39 39° ESE 19:52:28 10° NE
NOSS 3-3 (C) 4.2 19:41:29 10° S 19:46:45 39° ESE 19:52:33 10° NE
Cosmos 1758 Rocket 4.4 19:43:41 10° NNE 19:47:31 29° ENE 19:47:54 29° E
STARLINK-1100 3.6 19:44:56 10° NW 19:49:01 76° SW 19:50:38 35° SE
CZ-2C R/B 3.7 19:46:04 10° NNE 19:50:50 74° ESE 19:55:29 10° S
STARLINK-1083 3.7 19:49:42 10° WNW 19:53:46 70° SW 19:55:13 37° SSE
Cosmos 2184 Rocket 4.3 19:50:44 10° N 19:56:49 47° ENE 19:59:37 29° SE
IRIDIUM 106 4.3 19:51:50 10° N 19:57:02 63° E 20:00:13 23° SSE
STARLINK-1125 3.8 19:54:14 10° WNW 19:58:17 64° SW 19:59:34 40° SSE
Cosmos 1943 3.6 20:01:05 34° SE 20:02:01 36° ESE 20:07:10 10° NE
Cosmos 1943 Rocket 2.2 19:57:04 10° NNW 20:02:32 59° ENE 20:04:35 37° SE
STARLINK-1109 3.9 19:59:04 10° WNW 20:03:06 59° SW 20:04:12 42° SSE
Meteor 1-21 Rocket 4.1 19:57:46 10° N 20:03:19 68° ENE 20:06:08 30° SSE
STARLINK-1123 4.4 19:59:44 10° NW 20:03:39 40° NNE 20:04:30 35° ENE
Meteor 2-10 4.1 20:00:44 20° SSE 20:04:21 55° E 20:09:43 10° NNE
Resurs 1-3 3.5 20:05:31 40° SSE 20:07:03 77° ENE 20:11:26 10° N
STARLINK-1091 4.0 20:03:55 10° WNW 20:07:54 53° SW 20:08:50 42° S
STARLINK-1097 4.2 20:04:41 10° NW 20:08:39 42° NNE 20:09:16 39° NE
Cosmos 1626 4.1 20:06:50 10° NNW 20:10:05 29° W 20:13:18 10° SSW
ATLAS 2AS CENTAUR R/B 4.0 20:04:49 10° NNW 20:11:20 29° NE 20:14:21 22° ENE
STARLINK-1099 4.1 20:09:39 10° NW 20:13:40 45° NNE 20:14:04 44° NE
H-2A R/B 3.4 20:08:47 10° SSW 20:13:43 38° W 20:18:35 10° NNW
SL-08 RB Rocket 4.4 20:12:30 17° S 20:15:52 53° W 20:20:20 10° NNW
Aureole 3 3.8 20:12:25 13° SSW 20:15:54 69° W 20:20:52 10° N
Resurs 01 Rocket 1.5 20:16:28 61° ESE 20:16:58 68° ENE 20:21:21 10° N
USA 234 3.4 20:10:51 10° NE 20:17:23 74° NW 20:23:53 10° WSW
STARLINK-1072 4.3 20:14:03 10° WNW 20:17:53 43° SW 20:18:25 40° SSW
Cosmos 2154 Rocket 4.3 20:11:51 10° N 20:17:55 44° ENE 20:18:59 41° ESE
STARLINK-1104 4.0 20:14:37 10° NW 20:18:40 49° NNE 20:18:51 48° NE
SL-16 R/B 3.7 20:14:19 10° SW 20:19:33 38° WNW 20:24:48 10° N
DMSP B5D2-2 4.0 20:15:09 10° NNE 20:20:23 85° WNW 20:25:37 10° SSW
Cosmos 2228 4.0 20:22:40 33° NE 20:22:40 33° NE 20:25:18 10° NNE
Abrixas rocket 3.5 20:18:48 10° WSW 20:20:46 35° W 20:20:46 35° W
Cosmos 967 Rocket 4.4 20:15:29 10° SSW 20:21:48 64° ESE 20:28:13 10° NE
STARLINK-1096 4.4 20:18:25 10° WNW 20:22:10 39° SW 20:22:34 38° SSW
STARLINK-1144 4.0 20:19:36 10° NW 20:23:38 52° NNE 20:23:38 52° NNE
Cosmos 1953 2.7 20:23:07 28° SSW 20:25:03 61° W 20:29:01 10° N
STARLINK-1103 4.0 20:24:33 10° NW 20:28:25 55° NNE 20:28:25 55° NNE
Nadezhda 1 Rocket 4.0 20:29:48 43° SSE 20:31:51 65° E 20:38:11 10° NNE
Cosmos 1992 Rocket 3.8 20:27:07 10° NNW 20:32:21 87° ENE 20:33:07 66° SSE
STARLINK-1101 4.0 20:29:32 10° NW 20:33:11 57° N 20:33:11 57° N
ISS -1.9 20:33:37 10° NW 20:35:39 29° NNW 20:35:39 29° NNW
STARLINK-1102 4.1 20:34:29 10° NW 20:37:58 56° NNW 20:37:58 56° NNW
MetOp-B 4.0 20:40:10 69° E 20:40:23 70° ENE 20:45:44 10° N
Cosmos 1603 3.6 20:35:29 10° SSW 20:41:08 85° WNW 20:46:48 10° NNE
Cosmos 2251 Rocket 4.0 20:36:47 10° SSW 20:42:05 61° WNW 20:47:25 10° NNE
Meteor 1-16 Rocket 4.1 20:40:19 37° SSW 20:42:30 80° W 20:47:58 10° N
STARLINK-1111 4.3 20:39:28 10° NW 20:42:45 53° NNW 20:42:45 53° NNW
Cosmos 2084 Rocket 3.7 20:39:30 10° NW 20:43:30 69° WNW 20:43:30 69° WNW
ERS-1 Rocket 4.2 20:48:38 29° NE 20:48:38 29° NE 20:51:44 10° N
STARLINK-1073 4.5 20:44:27 10° NW 20:47:33 49° NW 20:47:33 49° NW
Cosmos 2074 Rocket 4.3 20:44:11 10° NNW 20:50:23 66° W 20:53:01 36° SSW
CZ-2C R/B 3.2 20:46:09 10° N 20:51:11 53° WNW 20:55:39 13° SW
Cosmos 292 Rocket 4.5 20:52:17 10° NNW 20:56:53 48° WSW 20:57:04 47° WSW
Aureole 1 Rocket 4.3 21:01:50 65° SE 21:02:40 69° ESE 21:09:29 10° NNE
Cosmos 1656 Rocket 3.9 20:57:07 10° NNW 21:02:03 59° NNE 21:02:03 59° NNE
Cosmos 1610 Rocket 4.4 20:58:32 10° N 21:04:46 78° W 21:05:26 70° SSW
Meteor 1-11 4.2 20:59:05 10° N 21:04:29 77° N 21:04:29 77° N
COSMOS 2455 4.1 21:10:39 10° NNW 21:15:09 29° NE 21:15:09 29° NE
Cosmos 2341 Rocket 4.2 21:17:14 10° N 21:22:43 66° NNE 21:22:43 66° NNE
Cosmos 2369 Rocket 3.2 21:19:46 10° NW 21:25:02 39° WSW 21:25:04 39° WSW
Terra 3.8 21:32:45 23° N 21:32:45 23° N 21:34:36 10° N
NOSS 3-4 (A) 4.0 21:23:28 10° NNW 21:30:09 62° NE 21:30:09 62° NE
NOSS 3-4 (C) 4.0 21:23:34 10° NNW 21:30:14 61° NE 21:30:14 61° NE
Cosmos 1943 Rocket 4.2 21:41:56 10° NW 21:45:46 19° W 21:46:08 19° WSW
Resurs 01 Rocket 4.5 21:54:02 11° W 21:54:02 11° W 21:55:15 10° WNW
ATLAS 2AS CENTAUR R/B 3.2 21:55:40 10° NW 22:01:48 61° NW 22:01:48 61° NW
